EHI
0 0 0 0 0 0 0 0 0 0 0 0 0 0 0 0 0 0 0 0 0 0 0 0 0 0 0 0 0 0 0 0 0 0 0 0 0 0 0 0 0 0 0 0
0 0 0 0 0 0 0 0 0 0 0 0 0 0 0 0 0 0 0 0 0 0 0 0 0 0 0 0 0 0 0 0 0 0 0 0 0 0 0 0 0 0 0 0
0 0 0 0 0 0 0 0 0 0 0 0 0 0 0 0 0 0 0 0 0 0 0 0 0 0 0 0 0 0 0 0 0 0 0 0 0 0 0 0 0 0 0 0
0 0 0 0 0 0 0 0 0 0 0 0 0 0 0 0 0 0 0 0 0 0 0 0 0 0 0 0 0 0 0 0 0 0 0 0 0 0 0 0 0 0 0 0
0 0 0 0 0 0 0 0 0 0 0 0 0 0 0 0 0 0 0 0 0 0 0 0 0 0 0 0 0 0 0 0 0 0 0 0 0 0 0 0 0 0 0 0
0 0 0 0 0 0 0 0 0 0 0 0 0 0 0 0 0 0 0 0 0 0 0 0 0 0 0 0 0 0 0 0 0 0 0 0 0 0 0 0 0 0 0 0
0 0 0 0 0 0 0 0 0 0 0 0 0 0 0 0 0 0 0 0 0 0 0 0 0 0 0 0 0 0 0 0 0 0 0 0 0 0 0 0 0 0 0 0
0 0 0 0 0 0 0 0 0 0 0 0 0 0 0 0 0 0 0 0 0 0 0 0 0 0 0 0 0 0 0 0 0 0 0 0 0 0 0 0 0 0 0 0
0 0 0 0 0 0 0 0 0 0 0 0 0 0 0 0 0 0 0 0 0 0 0 0 0 0 0 0 0 0 0 0 0 0 0 0 0 0 0 0 0 0 0 0
0 0 0 0 0 0 0 0 0 0 0 0 0 0 0 0 0 0 0 0 0 0 0 0 0 0 0 0 0 0 0 0 0 0 0 0 0 0 0 0 0 0 0 0
0 0 0 0 0 0 0 0 0 0 0 0 0 0 0 0 0 0 0 0 0 0 0 0 0 0 0 0 0 0 0 0 0 0 0 0 0 0 0 0 0 0 0 0
0 0 0 0 0 0 0 0 0 0 0 0 0 0 0 0 0 0 0 0 0 0 0 0 0 0 0 0 0 0 0 0 0 0 0 0 0 0 0 0 0 0 0 0
0 0 0 0 0 0 0 0 0 0 0 0 0 0 0 0 0 0 0 0 0 0 0 0 0 0 0 0 0 0 0 0 0 0 0 0 0 0 0 0 0 0 0 0
0 0 0 0 0 0 0 0 0 0 0 0 0 0 0 0 0 0 0 0 0 0 0 0 0 0 0 0 0 0 0 0 0 0 0 0 0 0 0 0 0 0 0 0
0 0 0 0 0 0 0 0 0 0 0 0 0 0 0 0 0 0 0 0 0 0 0 0 0 0 0 0 0 0 0 0 0 0 0 0 0 0 0 0 0 0 0 0
0 0 0 0 0 0 0 0 0 0 0 0 0 0 0 0 0 0 0 0 0 0 0 0 0 0 0 0 0 0 0 0 0 0 0 0 0 0 0 0 0 0 0 0
0 0 0 0 0 0 0 0 0 0 0 0 0 0 0 0 0 0 0 0 0 0 0 0 0 0 0 0 0 0 0 0 0 0 0 0 0 0 0 0 0 0 0 0
0 0 0 0 0 0 0 0 0 0 0 0 0 0 0 0 0 0 0 0 0 0 0 0 0 0 0 0 0 0 0 0 0 0 0 0 0 0 0 0 0 0 0 0
0 0 0 0 0 0 0 0 0 0 0 0 0 0 0 0 0 0 0 0 0 0 0 0 0 0 0 0 0 0 0 0 0 0 0 0 0 0 0 0 0 0 0 0
0 0 0 0 0 0 0 0 0 0 0 0 0 0 0 0 0 0 0 0 0 0 0 0 0 0 0 0 0 0 0 0 0 0 0 0 0 0 0 0 0 0 0 0
0 0 0 0 0 0 0 0 0 0 0 0 0 0 0 0 0 0 0 0 0 0 0 0 0 0 0 0 0 0 0 0 0 0 0 0 0 0 0 0 0 0 0 0
0 0 0 0 0 0 0 0 0 0 0 0 0 0 0 0 0 0 0 0 0 0 0 0 0 0 0 0 0 0 0 0 0 0 0 0 0 0 0 0 0 0 0 0
0 0 0 0 0 0 0 0 0 0 0 0 0 0 0 0 0 0 0 0 0 0 0 0 0 0 0 0 0 0 0 0 0 0 0 0 0 0 0 0 0 0 0 0
0 0 0 0 0 0 0 0 0 0 0 0 0 0 0 0 0 0 0 0 0 0 0 0 0 0 0 0 0 0 0 0 0 0 0 0 0 0 0 0 0 0 0 0
0 0 0 0 0 0 0 0 0 0 0 0 0 0 0 0 0 0 0 0 0 0 0 0 0 0 0 0 0 0 0 0 0 0 0 0 0 0 0 0 0 0 0 0
0 0 0 0 0 0 0 0 0 0 0 0 0 0 0 0 0 0 0 0 0 0 0 0 0 0 0 0 0 0 0 0 0 0 0 0 0 0 0 0 0 0 0 0
0 0 0 0 0 0 0 0 0 0 0 0 0 0 0 0 0 0 0 0 0 0 0 0 0 0 0 0 0 0 0 0 0 0 0 0 0 0 0 0 0 0 0 0
Wind_Speed
4 4 3 4 5 5 4 6 7 6 8 8 9 9 8 7 6 7 5 5 4 4 3 2 2 2 2 2 2 3 3 2 1 1 0 0 0 0 0 1 1 1 1 2
2 2 1 2 4 5 4 4 5 6 4 4 5 5 6 6 7 7 6 5 4 4 3 3 3 2 2 2 2 3 3 2 1 1 1 1 0 1 0 1 1 1 1 1
2 3 2 2 4 5 4 4 8 8 6 6 7 7 8 7 7 7 6 5 5 4 4 4 3 3 3 2 2 3 2 1 1 1 0 0 1 1 1 1 1 1 2 1
1 2 2 6 3 4 6 3 4 6 7 10 9 7 5 6 8 6 5 4 4 3 3 2 3 2 2 3 3 3 2 1 1 1 0 0 1 1 2 1 1 1 2 2
3 2 3 4 2 3 6 1 2 8 8 8 9 7 3 2 5 6 5 4 3 3 3 3 3 3 4 3 3 2 1 1 1 1 0 0 1 2 2 1 2 2 2 1
4 3 5 6 4 2 7 1 2 7 11 10 8 5 4 3 4 5 4 4 4 3 4 3 2 3 5 3 2 1 1 1 1 1 1 1 2 2 1 1 2 2 2 2
4 3 6 6 3 3 5 7 4 7 10 10 7 7 6 6 5 5 4 4 4 5 4 2 2 4 4 2 1 2 1 0 0 1 1 2 1 1 1 1 2 2 2 3
5 4 8 4 3 5 6 3 6 6 7 7 7 7 7 7 6 5 4 4 4 4 3 2 3 4 3 1 2 1 0 0 0 1 1 1 0 1 1 1 1 2 2 3
7 7 4 2 3 3 6 6 5 6 6 9 9 8 7 6 6 5 4 4 3 4 3 2 2 3 3 1 1 0 1 1 1 2 2 1 1 1 1 1 1 2 2 3
2 2 1 2 3 4 5 6 6 7 8 9 9 8 7 6 5 4 4 3 3 4 4 1 1 1 1 1 1 1 0 1 1 1 2 2 1 1 2 2 2 2 3 3
2 1 3 2 2 5 6 7 8 7 7 8 9 8 7 5 5 4 3 3 3 3 3 2 1 1 0 0 1 1 1 1 1 1 2 2 2 2 3 4 4 4 4 4
6 7 5 4 3 5 7 7 7 8 6 6 7 7 6 5 4 4 4 3 3 2 2 1 1 0 0 0 1 1 0 1 1 2 2 2 2 3 5 5 7 8 7 6
5 4 4 4 3 4 6 6 6 7 7 6 5 5 6 5 4 4 4 4 4 3 2 2 1 1 1 1 1 1 1 1 1 2 2 2 2 2 4 6 7 7 8 8
5 6 4 4 4 4 6 6 6 6 5 6 5 5 5 4 4 4 4 4 4 3 2 2 2 1 2 1 0 0 1 2 2 2 2 2 3 3 3 4 4 5 6 8
2 4 5 5 5 5 5 6 7 5 4 4 4 5 5 5 4 4 3 3 3 2 2 2 2 3 2 1 1 1 1 2 2 2 2 2 3 3 3 4 4 4 4 5
3 4 6 6 6 5 5 6 6 4 4 4 4 4 4 4 4 3 2 3 4 3 3 3 3 3 2 1 1 1 2 5 4 2 2 2 3 3 3 4 4 4 4 4
6 5 5 6 5 5 5 5 6 5 4 4 5 4 4 3 2 2 2 3 4 4 4 4 4 3 3 2 2 2 2 4 6 3 3 3 3 4 4 4 4 5 5 6
7 7 8 8 7 5 5 4 5 5 5 5 5 5 4 4 3 3 3 2 2 2 3 4 4 3 3 3 3 2 2 3 3 3 4 4 4 4 4 5 5 6 5 6
5 6 5 6 6 6 5 5 5 5 4 5 5 4 4 4 3 3 2 2 3 4 5 5 5 4 4 4 4 2 3 4 4 4 4 6 5 4 5 5 6 6 6 5
5 5 5 5 5 5 5 5 5 4 4 4 4 3 3 3 3 3 3 3 5 5 5 5 4 4 4 5 5 3 3 4 5 5 5 5 5 5 5 6 6 6 6 6
5 5 5 4 4 4 4 5 5 4 3 4 4 4 4 4 3 3 3 3 5 5 5 6 4 4 4 5 5 3 4 5 5 5 5 5 6 6 6 6 7 7 6 6
4 4 4 4 4 3 3 3 4 4 3 3 3 3 3 3 3 3 4 5 5 6 4 3 3 6 7 6 3 4 5 5 5 5 5 6 6 7 7 7 7 7 7 6
3 3 4 4 4 4 2 2 3 4 4 4 4 4 4 4 3 3 4 4 4 6 4 3 6 9 9 4 3 4 5 6 6 6 6 6 7 7 7 8 7 7 7 7
2 2 2 2 3 3 2 3 3 3 3 3 4 4 4 3 3 4 4 5 5 5 3 5 8 9 7 3 4 4 5 6 6 6 7 7 7 7 7 7 7 7 7 8
2 2 2 2 2 2 3 3 2 2 2 2 3 3 3 3 4 3 3 3 5 5 3 5 9 8 4 3 4 5 5 6 7 7 6 6 7 7 7 7 7 7 7 7
2 1 2 2 2 2 2 2 2 2 2 2 3 3 2 2 3 2 2 3 4 5 3 3 4 5 4 4 5 6 6 7 7 7 7 7 7 7 7 7 9 7 7 7
1 1 1 0 1 1 2 2 2 3 3 3 4 3 3 3 3 3 3 3 3 3 3 3 3 3 4 4 5 6 6 6 6 6 7 7 7 7 7 8 7 7 7 7
Wind_Direction
234 244 201 188 180 160 152 167 165 186 175 192 179 166 161 150 138 132 133 139 146 147 153 148 140 142 152 165 156 138 125 129 164 175 124 119 86 282 329 342 321 299 314 316
326 303 153 178 180 168 166 159 148 142 186 196 162 138 139 143 139 141 148 152 150 146 144 150 156 159 154 152 158 134 134 158 178 130 80 57 321 306 336 309 315 344 334 316
287 309 50 285 226 181 167 169 155 170 191 148 136 150 159 153 145 150 157 155 154 159 162 168 172 165 164 166 144 126 139 155 164 152 128 311 352 9 322 290 309 328 319 324
137 55 201 246 269 161 144 168 168 152 154 155 153 152 144 145 146 147 152 151 157 162 160 163 156 147 138 122 117 122 126 148 165 148 181 326 12 337 312 299 293 288 295 295
121 170 262 289 278 157 133 149 181 147 142 134 123 87 57 131 142 146 152 154 154 155 148 132 131 133 114 111 109 109 129 209 220 185 202 302 302 286 281 295 296 290 294 288
133 165 222 241 268 182 107 163 250 150 148 146 125 123 213 192 139 130 127 129 126 116 102 107 121 119 108 109 105 132 218 239 234 192 198 236 253 263 278 291 286 296 300 288
154 197 257 257 268 110 135 215 208 164 155 152 156 172 169 145 129 127 124 117 114 107 104 117 122 110 107 110 181 225 216 192 11 231 225 232 247 274 299 309 323 320 304 299
149 181 247 259 128 164 195 167 151 152 151 140 129 123 128 130 127 124 114 106 110 108 103 106 113 110 107 160 251 243 148 102 318 297 275 275 233 284 303 307 314 308 305 306
178 204 242 235 174 163 140 131 138 142 140 130 126 131 133 131 131 130 126 121 114 116 105 85 103 119 129 230 264 86 72 300 289 306 305 276 220 241 286 287 282 288 285 283
128 262 300 88 99 98 114 122 129 130 131 128 132 138 137 138 137 133 129 129 120 112 108 97 79 102 151 194 119 93 80 293 295 305 307 306 277 240 235 248 259 271 274 273
126 202 79 42 112 117 103 104 109 111 119 132 133 138 143 145 145 143 135 133 128 132 143 162 147 90 75 96 90 71 4 312 305 294 278 287 285 264 251 244 235 243 248 247
197 204 167 195 188 136 122 124 127 119 109 121 132 139 138 144 150 146 141 134 131 136 146 163 142 113 318 312 112 111 4 316 304 298 293 283 288 306 298 283 282 272 266 260
182 174 159 159 147 130 131 135 134 129 132 131 127 134 136 139 146 143 142 144 155 166 169 167 156 185 281 295 116 130 219 270 285 288 288 283 279 280 298 311 309 295 286 278
146 125 124 142 146 131 124 124 118 112 120 130 132 129 132 132 135 146 167 181 173 164 167 169 167 228 250 247 140 255 263 279 289 270 269 273 273 271 268 279 298 303 298 287
156 145 155 146 130 124 122 119 115 117 119 120 128 131 138 146 159 177 186 177 156 157 178 183 200 244 252 222 201 256 267 270 270 273 275 276 281 282 278 277 277 284 295 300
142 121 128 131 138 138 133 134 137 150 151 147 143 148 152 156 164 170 178 167 163 188 206 207 223 238 237 214 224 251 262 286 294 280 277 281 282 286 285 280 278 278 278 280
145 155 153 152 155 154 155 157 160 165 163 161 166 159 144 135 138 164 209 205 192 201 208 211 225 232 225 215 217 240 257 277 292 289 268 266 269 271 273 274 272 270 270 272
170 175 171 167 166 164 165 161 159 160 164 170 157 144 146 156 180 206 218 213 210 238 240 230 226 227 230 232 229 236 248 259 261 262 264 264 266 265 265 267 271 272 275 277
160 160 161 162 162 160 163 164 165 164 162 154 151 162 175 187 196 205 199 186 206 238 249 241 242 234 234 244 252 231 244 257 263 265 264 270 272 267 264 265 268 270 270 268
146 146 145 147 151 153 159 162 158 159 164 158 156 164 184 209 207 207 205 218 226 229 234 241 236 232 234 240 254 236 244 254 260 265 266 264 264 267 266 266 266 268 269 264
142 140 141 143 146 149 155 157 158 171 180 169 170 186 204 218 215 206 205 242 258 248 240 246 239 234 237 247 257 242 246 253 256 259 262 263 265 266 266 266 267 267 268 266
145 147 152 153 151 158 171 167 168 174 179 183 188 192 201 221 230 232 229 230 244 248 241 231 233 246 257 263 244 246 250 254 255 257 258 259 260 262 263 264 264 266 265 262
148 157 160 164 168 176 179 177 179 179 187 195 198 202 209 219 215 213 250 254 244 249 246 235 250 264 273 265 249 252 256 258 258 258 258 257 256 257 260 262 262 262 262 261
130 144 167 168 149 148 184 223 212 202 203 208 212 213 211 220 243 239 234 255 260 260 250 256 267 278 285 264 256 258 260 260 260 261 261 260 258 258 259 261 262 262 261 261
145 144 142 146 162 194 210 213 209 216 213 230 243 240 229 213 221 241 242 243 258 268 263 274 286 293 288 264 261 262 261 260 264 267 262 263 262 260 259 259 261 263 262 260
162 179 197 200 203 209 205 188 198 216 212 231 252 250 248 243 234 232 234 241 249 268 268 264 267 274 268 267 269 268 266 272 277 273 268 266 264 262 262 262 262 262 262 261
183 176 170 241 260 211 195 196 212 230 224 219 236 244 242 238 230 230 235 242 250 258 263 264 262 263 267 270 273 273 271 270 270 270 270 267 264 262 263 263 262 262 261 261